Change the Weather History Date:

Wednesday, September 25, 2013

  Actual Average Record
Temperature  
Mean Temperature 71 °F -  
Max Temperature 91 °F 84 °F 102 °F (2005)
Min Temperature 51 °F 55 °F 44 °F (2000)
Cooling Degree Days 6    
Growing Degree Days 21 (Base 50)    
Moisture  
Dew Point 48 °F    
Average Humidity 49    
Maximum Humidity 86    
Minimum Humidity 20    
Precipitation  
Precipitation 0.00 in - - ()
Sea Level Pressure  
Sea Level Pressure 29.74 in    
Wind  
Wind Speed 5 mph (South)    
Max Wind Speed 14 mph    
Max Gust Speed 17 mph    
Visibility 10 miles    
Events      
Averages and records for this station are not official NWS values.
T = Trace of Precipitation, MM = Missing Value Source: NWS Daily Summary

Daily Weather History Graph

Daily Weather History Graph

Search for Another Location

Airport or City:

Trip Planner

Search our weather history database for the weather conditions in past years. The results will help you decide how hot, cold, wet, or windy it might be!

Date:

Astronomy

Sep. 25, 2013 Rise Set
Actual Time 6:47 AM MDT 6:49 PM MDT
Civil Twilight 6:22 AM MDT 7:13 PM MDT
Nautical Twilight 5:54 AM MDT 7:42 PM MDT
Astronomical Twilight 5:25 AM MDT 8:10 PM MDT
Moon 11:15 PM MDT (9/25) 12:37 PM MDT (9/25)
Length of Visible Light 12h 50m
Length of Day
12h 01m
Waning Gibbous, 63% of the Moon is Illuminated
Sep 25
Waning Gibbous
Sep 26
Last Quarter
Oct 4
New
Oct 11
First Quarter
Oct 18
Full

Hourly Weather History & Observations

Time (MDT) Temp. Dew Point Humidity Pressure Visibility Wind Dir Wind Speed Gust Speed Precip Events Conditions
12:53 AM 60.1 °F 48.0 °F 64% 29.85 in 10.0 mi Calm Calm - N/A   Clear
1:53 AM 57.0 °F 50.0 °F 77% 29.84 in 10.0 mi WSW 8.1 mph - N/A   Clear
2:53 AM 55.9 °F 48.9 °F 77% 29.83 in 10.0 mi Calm Calm - N/A   Clear
3:53 AM 57.0 °F 48.0 °F 72% 29.81 in 10.0 mi Calm Calm - N/A   Clear
4:53 AM 53.1 °F 48.0 °F 83% 29.82 in 10.0 mi NNW 3.5 mph - N/A   Clear
5:53 AM 53.1 °F 46.9 °F 80% 29.83 in 10.0 mi NW 3.5 mph - N/A   Clear
6:53 AM 51.1 °F 46.9 °F 86% 29.84 in 10.0 mi NW 4.6 mph - N/A   Clear
7:53 AM 57.9 °F 51.1 °F 78% 29.85 in 10.0 mi Calm Calm - N/A   Clear
8:53 AM 64.9 °F 48.0 °F 54% 29.85 in 10.0 mi North 3.5 mph - N/A   Clear
9:53 AM 70.0 °F 48.0 °F 46% 29.84 in 10.0 mi ESE 3.5 mph - N/A   Clear
10:53 AM 75.9 °F 48.9 °F 38% 29.81 in 10.0 mi SSE 5.8 mph - N/A   Clear
11:53 AM 84.9 °F 45.0 °F 25% 29.76 in 10.0 mi South 12.7 mph 17.3 mph N/A   Clear
12:53 PM 88.0 °F 45.0 °F 22% 29.73 in 10.0 mi South 13.8 mph - N/A   Clear
1:53 PM 90.0 °F 44.1 °F 20% 29.69 in 10.0 mi South 10.4 mph - N/A   Clear
2:53 PM 91.0 °F 45.0 °F 20% 29.66 in 10.0 mi SSW 8.1 mph - N/A   Clear
3:53 PM 91.0 °F 45.0 °F 20% 29.64 in 10.0 mi South 9.2 mph - N/A   Clear
4:53 PM 91.0 °F 45.0 °F 20% 29.63 in 10.0 mi South 12.7 mph - N/A   Clear
5:53 PM 89.1 °F 46.9 °F 23% 29.63 in 10.0 mi SSW 11.5 mph - N/A   Clear
6:53 PM 82.9 °F 51.1 °F 33% 29.64 in 10.0 mi SSE 4.6 mph - N/A   Clear
7:53 PM 73.0 °F 55.9 °F 55% 29.65 in 10.0 mi Calm Calm - N/A   Clear
8:53 PM 73.0 °F 53.1 °F 49% 29.65 in 10.0 mi Calm Calm - N/A   Clear
9:53 PM 68.0 °F 55.9 °F 65% 29.66 in 10.0 mi South 6.9 mph - N/A   Clear
10:53 PM 77.0 °F 46.0 °F 33% 29.63 in 10.0 mi SSE 12.7 mph - N/A   Clear
11:53 PM 72.0 °F 46.9 °F 41% 29.62 in 10.0 mi SSE 9.2 mph - N/A   Clear